Regional Weather Roundup
Issued by NWS Green Bay, WI

Home | Current Version | Previous Version | Graphics & Text | Print | Product List | Glossary Off
Versions: 1 2 3 4 5 6 7 8 9 10 11 12 13 14 15 16 17 18 19 20 21 22 23 24 25 26 27 28 29 30 31 32 33 34 35 36 37 38 39 40 41 42 43 44 45 46 47 48 49 50

000
ASUS43 KGRB 281900
RWRGRB

NORTH-CENTRAL AND NORTHEAST WISCONSIN REGIONAL WEATHER ROUNDUP
NATIONAL WEATHER SERVICE GREEN BAY WI
200 PM CDT WED SEP 28 2016

WIZ005-009-010>012-018-019-282000-
NORTH CENTRAL WISCONSIN

CITY           SKY/WX    TMP DP  RH WIND       PRES   REMARKS
IRONWOOD       CLOUDY    56  54  93 N12       30.20R FOG
MANITOWISH WTR NOT AVBL
ARBOR VITAE    NOT AVBL
EAGLE RIVER    NOT AVBL
LAND O LAKES   CLOUDY    58  51  77 NE9       30.17R
RHINELANDER    CLOUDY    61  49  64 VRB7      30.13R
PHILLIPS       CLOUDY    57  52  81 N13G20    30.15R
ANTIGO         NOT AVBL
TOMAHAWK       CLOUDY    59  47  63 NE5       30.14R
MERRILL        CLOUDY    61  50  67 NE8       30.12R
$$

WIZ013-073-282000-
NORTHEAST WISCONSIN

CITY           SKY/WX    TMP DP  RH WIND       PRES   REMARKS
IRON MOUNTAIN  MOSUNNY   62  47  57 NE7       30.11R
MARINETTE      MOSUNNY   62  53  72 NE22G28   30.09
$$

WIZ017-030-035>037-045-282000-
CENTRAL WISCONSIN

CITY           SKY/WX    TMP DP  RH WIND       PRES   REMARKS
MEDFORD        NOT AVBL
WAUSAU         PTSUNNY   61  48  62 N8        30.09R
MOSINEE        CLOUDY    61  48  63 NE13G21   30.11R
MARSHFIELD     CLOUDY    60  48  64 N16G24    30.09R
WISC RAPIDS    CLOUDY    61  50  67 NE10G18   30.09R
STEVENS POINT  NOT AVBL
WAUPACA        PTSUNNY   60  52  73 N9G21     30.08R
SHAWANO        NOT AVBL
CLINTONVILLE   NOT AVBL
WAUTOMA        CLOUDY    62  49  62 N15G23    30.06R
$$

WIZ038-039-048-051-282000-
FOX VALLEY

CITY           SKY/WX    TMP DP  RH WIND       PRES   REMARKS
NWS GREEN BAY  CLOUDY    61  52  72 NE16G23   30.06R
APPLETON       PTSUNNY   57  48  72 NE12      30.04R
OSHKOSH        CLOUDY    59  51  75 NE15      30.03R
FOND DU LAC    CLOUDY    60  51  72 NE14      30.03R
$$

WIZ022-050-052-282000-
EAST CENTRAL WISCONSIN

CITY           SKY/WX    TMP DP  RH WIND       PRES   REMARKS
EPHRAIM        MOCLDY    60  50  68 NE14      30.08R
WASHINGTON ISL NOT AVBL
STURGEON BAY   MOSUNNY   61  49  64 E8        30.08R
MANITOWOC      PTSUNNY   61  48  63 MISG      30.04R
SHEBOYGAN      PTSUNNY   61  51  70 NE14      30.02R
$$

LMZ563-521-522-541>543-282000-
LAKESHORE

STATION/POSITION TIME  TEMP    WIND        PRES    VSBY  WAVE
                       AIR SEA DIR/SP/G                  HT/PER
                 (UTC) (F)     (DEG/KT/KT) (MB)    (MI)  (FT/S)
SHEBOYGAN LKSHOR 1800   57      30/ 13/ 14 1015.9R
KEWAUNEE LKSHORE 1800   60      40/  7/ 12 1016.5R
NORTHPORT PIER   1800   62      40/ 17/ 20 1017.9R
N MID LAKE BUOY  1750   60 66   60/ 16/ 17 1017.4R         2/ 4
CHAMBERS ISLAND  1800   60      30/ 17/ 23 1017.6R
MENOMINEE LKSHOR 1800   60      30/ 21/ 28 1016.9R
$$




USA.gov is the U.S. government's official web portal to all federal, state and local government web resources and services.